Location: Poughquag
(41.6090°N, 73.6820°W)
Time: 12:23:20
(UTC-04:00)

Vanguard 1 - Pass Details

Date: 31 May 2020
Orbit: 650 x 3833 km, 34.2° (Epoch: 07 July)

Event Time Altitude Azimuth Distance (km) Brightness Sun altitude
Rises 05:46:16 0° 226° (SW) 5,736 13.3 2.9°
Reaches altitude 10° 05:49:35 10° 221° (SW) 5,087 13.1 3.5°
Maximum altitude 06:05:13 52° 150° (SSE) 3,917 13.3 6.1°
Drops below altitude 10° 06:27:13 10° 83° (E) 6,924 16.4 9.9°
Sets 06:32:40 0° 80° (E) 7,853 16.7 10.9°
